Weather History for Tacoma, WA

Change the Weather History Date:

Sunday, November 4, 2012

  Actual Average Record
Temperature  
Mean Temperature 60 °F -  
Max Temperature 66 °F 53 °F 70 °F (1975)
Min Temperature 53 °F 34 °F 21 °F (2002)
Degree Days  
Heating Degree Days 6    
Growing Degree Days 10 (Base 50)    
Moisture  
Dew Point 57 °F    
Average Humidity 92    
Maximum Humidity 100    
Minimum Humidity 73    
Precipitation  
Precipitation 0.11 in - - ()
Sea Level Pressure  
Sea Level Pressure 30.23 in    
Wind  
Wind Speed 5 mph (South)    
Max Wind Speed 15 mph    
Max Gust Speed 24 mph    
Visibility 8 miles    
Events Rain    
Averages and records for this station are not official NWS values.
T = Trace of Precipitation, MM = Missing Value Source: NWS Daily Summary

Daily Weather History Graph

Daily Weather History Graph

Search for Another Location

Airport:

Trip Planner

Search our weather history database for the weather conditions in past years. The results will help you decide how hot, cold, wet, or windy it might be!

Date:

Astronomy

Nov. 04, 2012 Rise Set
Actual Time 6:58 AM PST 4:48 PM PST
Civil Twilight 6:25 AM PST 5:20 PM PST
Nautical Twilight 5:49 AM PST 5:56 PM PST
Astronomical Twilight 5:14 AM PST 6:32 PM PST
Moon 9:28 PM PST (11/4) 11:49 AM PST (11/4)
Length of Visible Light 10h 54m
Length of Day
9h 49m
Waning Gibbous, 71% of the Moon is Illuminated
Nov 4
Waning Gibbous
Nov 6
Last Quarter
Nov 13
New
Nov 20
First Quarter
Nov 28
Full

Hourly Weather History & Observations

Time (PST) Temp. Dew Point Humidity Pressure Visibility Wind Dir Wind Speed Gust Speed Precip Events Conditions
12:08 AM 53.6 °F 53.6 °F 100% 30.19 in 10.0 mi ESE 1.2 mph - N/A   Overcast
12:26 AM 53.6 °F 53.6 °F 100% 30.19 in 8.0 mi SE 1.2 mph - N/A   Overcast
12:27 AM 53.6 °F 53.6 °F 100% 30.19 in 7.0 mi ESE 1.2 mph - N/A   Light Drizzle
12:32 AM 55.4 °F 53.6 °F 94% 30.19 in 4.0 mi ESE 2.3 mph - N/A   Light Drizzle
12:42 AM 55.4 °F 55.4 °F 100% 30.18 in 5.0 mi East 3.5 mph - N/A   Light Drizzle
12:46 AM 55.4 °F 55.4 °F 100% 30.18 in 8.0 mi East 4.6 mph - N/A   Overcast
12:51 AM 55.4 °F 55.4 °F 100% 30.18 in 10.0 mi ESE 4.6 mph - N/A   Overcast
12:56 AM 55.4 °F 55.4 °F 100% 30.18 in 10.0 mi ESE 4.6 mph - N/A   Overcast
12:58 AM 55.4 °F 55.4 °F 100% 30.19 in 10.0 mi ESE 4.6 mph - 0.00 in   Overcast
1:03 AM 55.4 °F 55.4 °F 100% 30.18 in 10.0 mi ESE 4.6 mph - N/A   Overcast
1:08 AM 55.4 °F 55.4 °F 100% 30.18 in 10.0 mi ESE 3.5 mph - N/A   Overcast
1:32 AM 55.4 °F 55.4 °F 100% 30.17 in 9.0 mi ESE 2.3 mph - N/A   Light Drizzle
1:42 AM 55.4 °F 55.4 °F 100% 30.17 in 10.0 mi East 2.3 mph - N/A   Overcast
1:58 AM 54.9 °F 54.5 °F 99% 30.19 in 10.0 mi West 1.2 mph - 0.00 in   Overcast
1:58 AM 54.5 °F 54.1 °F 99% 30.20 in 10.0 mi ENE 3.5 mph - 0.01 in   Overcast
2:38 AM 55.4 °F 53.6 °F 94% 30.18 in 10.0 mi ESE 3.5 mph - N/A   Overcast
2:43 AM 55.4 °F 53.6 °F 94% 30.18 in 10.0 mi East 1.2 mph - N/A   Overcast
2:58 AM 54.9 °F 54.5 °F 99% 30.19 in 10.0 mi East 1.2 mph - N/A   Overcast
3:13 AM 55.4 °F 55.4 °F 100% 30.19 in 10.0 mi North 1.2 mph - N/A   Overcast
3:24 AM 55.4 °F 55.4 °F 100% 30.19 in 10.0 mi NE 2.3 mph - N/A   Light Drizzle
3:33 AM 55.4 °F 55.4 °F 100% 30.19 in 5.0 mi NNE 2.3 mph - N/A   Light Drizzle
3:38 AM 55.4 °F 55.4 °F 100% 30.19 in 4.0 mi East 2.3 mph - N/A   Light Drizzle
3:43 AM 55.4 °F 53.6 °F 94% 30.19 in 4.0 mi ESE 2.3 mph - N/A   Light Drizzle
3:50 AM 55.4 °F 53.6 °F 94% 30.19 in 5.0 mi SE 2.3 mph - N/A   Overcast
3:57 AM 55.4 °F 53.6 °F 94% 30.19 in 7.0 mi SE 2.3 mph - N/A   Light Drizzle
3:58 AM 55.4 °F 53.6 °F 94% 30.20 in 7.0 mi SE 2.3 mph - 0.00 in   Light Drizzle
4:27 AM 55.4 °F 53.6 °F 94% 30.20 in 7.0 mi East 3.5 mph - N/A   Overcast
4:58 AM 54.7 °F 54.3 °F 99% 30.22 in 8.0 mi East 3.5 mph - 0.01 in   Overcast
5:38 AM 55.4 °F 55.4 °F 100% 30.21 in 10.0 mi East 2.3 mph - N/A   Overcast
5:58 AM 54.7 °F 54.3 °F 99% 30.22 in 7.0 mi ESE 3.5 mph - N/A   Overcast
6:58 AM 54.7 °F 54.3 °F 99% 30.22 in 10.0 mi ESE 2.3 mph - N/A   Overcast
7:58 AM 54.5 °F 54.1 °F 99% 30.22 in 10.0 mi Calm Calm - N/A   Mostly Cloudy
8:58 AM 56.3 °F 55.9 °F 99% 30.23 in 10.0 mi Calm Calm - N/A   Overcast
9:58 AM 58.8 °F 57.2 °F 94% 30.25 in 10.0 mi South 3.5 mph - N/A   Overcast
10:58 AM 60.8 °F 57.7 °F 90% 30.25 in 10.0 mi SW 2.3 mph - N/A   Overcast
11:58 AM 63.1 °F 58.8 °F 86% 30.25 in 10.0 mi Calm Calm - N/A   Light Drizzle
12:07 PM 64.4 °F 59.0 °F 83% 30.23 in 10.0 mi SSW 9.2 mph - N/A   Overcast
12:58 PM 65.5 °F 58.3 °F 77% 30.25 in 10.0 mi SW 10.4 mph - 0.00 in   Overcast
1:13 PM 66.2 °F 59.0 °F 78% 30.24 in 10.0 mi SSW 9.2 mph - N/A   Overcast
1:18 PM 66.2 °F 59.0 °F 78% 30.24 in 10.0 mi SSW 10.4 mph - N/A   Overcast
1:38 PM 66.2 °F 59.0 °F 78% 30.24 in 10.0 mi SW 13.8 mph - N/A   Overcast
1:43 PM 66.2 °F 57.2 °F 73% 30.24 in 10.0 mi SSW 12.7 mph - N/A   Overcast
1:58 PM 65.5 °F 57.9 °F 77% 30.26 in 10.0 mi SW 12.7 mph - N/A   Overcast
2:08 PM 64.4 °F 57.2 °F 77% 30.25 in 10.0 mi SSW 12.7 mph - N/A   Overcast
2:13 PM 64.4 °F 57.2 °F 77% 30.25 in 10.0 mi SSW 12.7 mph - N/A   Overcast
2:18 PM 66.2 °F 57.2 °F 73% 30.25 in 10.0 mi SSW 15.0 mph - N/A   Overcast
2:23 PM 66.2 °F 57.2 °F 73% 30.25 in 10.0 mi SSW 15.0 mph - N/A   Overcast
2:58 PM 65.8 °F 57.7 °F 75% 30.26 in 10.0 mi SSW 13.8 mph 24.2 mph N/A   Overcast
3:58 PM 65.7 °F 57.2 °F 74% 30.24 in 10.0 mi SSW 13.8 mph - N/A   Clear
4:58 PM 65.3 °F 56.7 °F 74% 30.24 in 10.0 mi South 9.2 mph 18.4 mph N/A   Overcast
5:44 PM 64.4 °F 57.2 °F 77% 30.25 in 9.0 mi SW 6.9 mph - N/A Rain Light Rain
5:58 PM 63.3 °F 57.7 °F 82% 30.27 in 10.0 mi SW 6.9 mph - 0.01 in Rain Light Rain
5:59 PM 62.6 °F 57.2 °F 82% 30.26 in 10.0 mi SW 6.9 mph - N/A   Overcast
6:58 PM 63.5 °F 57.4 °F 80% 30.26 in 10.0 mi South 11.5 mph - 0.00 in   Overcast
7:58 PM 64.4 °F 56.5 °F 75% 30.24 in 10.0 mi South 12.7 mph - N/A   Overcast
8:33 PM 66.2 °F 57.2 °F 73% 30.24 in 10.0 mi SW 12.7 mph 24.2 mph N/A   Overcast
8:42 PM 64.4 °F 57.2 °F 77% 30.25 in 7.0 mi WSW 10.4 mph - N/A Rain Rain
8:57 PM 62.6 °F 59.0 °F 88% 30.26 in 5.0 mi West 11.5 mph - N/A Rain Light Rain
8:58 PM 62.6 °F 59.0 °F 88% 30.27 in 5.0 mi West 11.5 mph - 0.02 in Rain Light Rain
9:07 PM 60.8 °F 60.8 °F 100% 30.26 in 5.0 mi WSW 8.1 mph - N/A   Overcast
9:19 PM 60.8 °F 60.8 °F 100% 30.26 in 5.0 mi WSW 6.9 mph - N/A Rain Light Rain
9:34 PM 60.8 °F 60.8 °F 100% 30.26 in 5.0 mi SW 6.9 mph - N/A Rain Light Rain
9:39 PM 60.8 °F 60.8 °F 100% 30.26 in 6.0 mi SW 5.8 mph - N/A Rain Light Rain
9:54 PM 60.8 °F 60.8 °F 100% 30.27 in 7.0 mi SW 8.1 mph - N/A Rain Light Rain
9:58 PM 60.6 °F 60.3 °F 99% 30.28 in 7.0 mi SW 8.1 mph - 0.03 in Rain Light Rain
10:08 PM 60.8 °F 60.8 °F 100% 30.27 in 5.0 mi SW 9.2 mph - N/A Rain Light Rain
10:33 PM 60.8 °F 60.8 °F 100% 30.26 in 5.0 mi SSW 10.4 mph - N/A Rain Light Rain
10:38 PM 60.8 °F 60.8 °F 100% 30.27 in 7.0 mi SW 11.5 mph - N/A Rain Light Rain
10:40 PM 60.8 °F 60.8 °F 100% 30.27 in 7.0 mi SSW 10.4 mph - N/A Rain Light Rain
10:45 PM 60.8 °F 60.8 °F 100% 30.27 in 8.0 mi SSW 10.4 mph - N/A Rain Light Rain
10:49 PM 60.8 °F 60.8 °F 100% 30.27 in 10.0 mi SW 9.2 mph - N/A   Overcast
10:58 PM 60.4 °F 60.1 °F 99% 30.28 in 10.0 mi SW 8.1 mph - 0.03 in   Overcast